In Rescue
 
Open Full Screen Window  High Contrast Mode
Wind Gusting 00 knots
07
April 19, 2021 9:02 PM EDT
Present Weather: Light Rain
Weather Information
Wind Direction
  300 °
Wind Speed
  07 kt (8 mph)
Wind Gust
  00 kt (0 mph)
Altimeter
29.84 in
Visibility
10 SM
Temperature
06° C
43° F
Dewpoint
03° C
37° F
Humidity
81%
1hr Rain Fall
00.00 in.
24hr Rain Fall
00.00 in.
Sky Condition
Overcast @ 6,000 ft
Broken @ 4,900 ft
VFR

METAR KONZ 200102Z AUTO 30007KT 10SM -RA BKN049 OVC060 06/03 A2984 RMK AO2 T00580031

FAA Disclaimer: The data displayed is for advisory purposes only and is not to be used for flight planning or operations.